When you browse on this site, cookies collect data to enhance your experience and personalize the content and advertising you see.
Visit our Privacy Policy to learn more. By continuing to use the site, you agree to this use of cookies and data.
  • In Austria
  • List of Countries
  • For 7 days
  • Water Temperature
  • Satellite Maps
  • Weather Map
  • News
  • Weather Widgets
  • user-avatar
    Login

    Hourly Weather Nakhchivan

    Today, 21 May, Tuesday

    Time Temperature Precipitation Wind Pressure Humidity
    00:00 +23°C° 0.1 mm 2 mps 687 mmHg 40%
    01:00 +23°C° 0.1 mm 1 mps 687 mmHg 43%
    02:00 +22°C° 0.1 mm 1 mps 687 mmHg 45%
    03:00 +22°C° 0 mm 1 mps 687 mmHg 48%
    04:00 +22°C° 0.1 mm 1 mps 687 mmHg 49%
    05:00 +21°C° 0.1 mm 1 mps 688 mmHg 49%
    06:00 +20°C° 0.1 mm 2 mps 688 mmHg 50%
    07:00 +21°C° 0.2 mm 2 mps 688 mmHg 47%
    08:00 +23°C° 0.2 mm 2 mps 688 mmHg 45%
    09:00 +24°C° 0 mm 2 mps 688 mmHg 40%
    10:00 +24°C° 0 mm 2 mps 688 mmHg 38%
    11:00 +25°C° 0 mm 2 mps 688 mmHg 35%
    12:00 +26°C° 0 mm 2 mps 689 mmHg 32%
    13:00 +27°C° 0 mm 2 mps 689 mmHg 30%
    14:00 +27°C° 0 mm 2 mps 689 mmHg 28%
    15:00 +28°C° 0 mm 2 mps 689 mmHg 27%
    16:00 +28°C° 0 mm 3 mps 689 mmHg 28%
    17:00 +27°C° 0 mm 3 mps 689 mmHg 29%
    18:00 +27°C° 0 mm 4 mps 689 mmHg 30%
    19:00 +25°C° 0 mm 4 mps 690 mmHg 34%
    20:00 +24°C° 0 mm 3 mps 690 mmHg 38%
    21:00 +22°C° 0 mm 3 mps 690 mmHg 42%
    22:00 +21°C° 0 mm 3 mps 690 mmHg 45%
    23:00 +21°C° 0 mm 2 mps 690 mmHg 47%

    Tomorrow, 22 May, Wednesday

    Time Temperature Precipitation Wind Pressure Humidity
    00:00 +20°C° 0 mm 2 mps 690 mmHg 49%
    01:00 +19°C° 0 mm 2 mps 690 mmHg 50%
    02:00 +20°C° 0 mm 1 mps 690 mmHg 52%
    03:00 +19°C° 0 mm 1 mps 690 mmHg 54%
    04:00 +19°C° 0 mm 1 mps 690 mmHg 53%
    05:00 +20°C° 0 mm 1 mps 690 mmHg 51%
    06:00 +20°C° 0 mm 1 mps 690 mmHg 50%
    07:00 +21°C° 0 mm 1 mps 690 mmHg 46%
    08:00 +22°C° 0 mm 1 mps 690 mmHg 42%
    09:00 +23°C° 0 mm 1 mps 689 mmHg 38%
    10:00 +24°C° 0 mm 1 mps 689 mmHg 35%
    11:00 +26°C° 0 mm 1 mps 689 mmHg 33%
    12:00 +27°C° 0 mm 1 mps 689 mmHg 30%
    13:00 +27°C° 0.3 mm 1 mps 688 mmHg 29%
    14:00 +28°C° 0.3 mm 1 mps 688 mmHg 28%
    15:00 +28°C° 0.3 mm 1 mps 688 mmHg 27%
    16:00 +27°C° 0.8 mm 1 mps 688 mmHg 32%
    17:00 +27°C° 0.8 mm 1 mps 688 mmHg 36%
    18:00 +26°C° 0.8 mm 1 mps 687 mmHg 40%
    19:00 +25°C° 0.6 mm 1 mps 688 mmHg 43%
    20:00 +24°C° 0.6 mm 1 mps 688 mmHg 46%
    21:00 +23°C° 0.6 mm 1 mps 688 mmHg 50%
    22:00 +23°C° 0.2 mm 1 mps 688 mmHg 51%
    23:00 +22°C° 0.2 mm 1 mps 688 mmHg 53%

    Day after tomorrow, 23 May, Thursday

    Time Temperature Precipitation Wind Pressure Humidity
    00:00 +20°C° 0.2 mm 0 mps 688 mmHg 54%
    01:00 +19°C° 0 mm 0 mps 688 mmHg 56%
    02:00 +21°C° 0 mm 1 mps 688 mmHg 57%
    03:00 +20°C° 0 mm 1 mps 687 mmHg 58%
    04:00 +21°C° 0 mm 1 mps 687 mmHg 57%
    05:00 +21°C° 0 mm 1 mps 687 mmHg 56%
    06:00 +21°C° 0 mm 1 mps 687 mmHg 55%
    07:00 +22°C° 0 mm 1 mps 687 mmHg 50%
    08:00 +23°C° 0 mm 1 mps 687 mmHg 46%
    09:00 +24°C° 0 mm 1 mps 687 mmHg 42%
    10:00 +25°C° 0 mm 1 mps 687 mmHg 38%
    11:00 +26°C° 0 mm 1 mps 687 mmHg 35%
    12:00 +27°C° 0 mm 2 mps 687 mmHg 32%
    13:00 +28°C° 0.1 mm 2 mps 686 mmHg 31%
    14:00 +29°C° 0.1 mm 2 mps 686 mmHg 29%
    15:00 +29°C° 0.1 mm 2 mps 686 mmHg 27%
    16:00 +29°C° 0.2 mm 4 mps 686 mmHg 29%
    17:00 +28°C° 0.2 mm 5 mps 686 mmHg 31%
    18:00 +28°C° 0.2 mm 6 mps 686 mmHg 32%
    19:00 +27°C° 0.2 mm 5 mps 686 mmHg 37%
    20:00 +25°C° 0.2 mm 3 mps 687 mmHg 41%
    21:00 +24°C° 0.2 mm 1 mps 687 mmHg 46%
    22:00 +24°C° 0 mm 1 mps 687 mmHg 47%
    23:00 +23°C° 0 mm 1 mps 687 mmHg 48%

    24 May, Friday

    Time Temperature Precipitation Wind Pressure Humidity
    00:00 +23°C° 0 mm 1 mps 687 mmHg 50%
    01:00 +22°C° 0 mm 1 mps 687 mmHg 51%
    02:00 +22°C° 0 mm 1 mps 687 mmHg 53%
    03:00 +19°C° 0 mm 0 mps 687 mmHg 54%
    04:00 +21°C° 0 mm 1 mps 687 mmHg 52%
    05:00 +22°C° 0 mm 1 mps 688 mmHg 50%
    06:00 +22°C° 0 mm 1 mps 688 mmHg 48%
    07:00 +23°C° 0 mm 1 mps 688 mmHg 46%
    08:00 +24°C° 0 mm 1 mps 688 mmHg 43%
    09:00 +25°C° 0 mm 1 mps 688 mmHg 40%
    10:00 +26°C° 0 mm 1 mps 688 mmHg 38%
    11:00 +27°C° 0 mm 2 mps 688 mmHg 35%
    12:00 +28°C° 0 mm 2 mps 688 mmHg 32%
    13:00 +29°C° 0 mm 2 mps 688 mmHg 30%
    14:00 +30°C° 0 mm 3 mps 688 mmHg 28%
    15:00 +31°C° 0 mm 3 mps 688 mmHg 25%
    16:00 +31°C° 0.1 mm 3 mps 688 mmHg 26%
    17:00 +31°C° 0.1 mm 3 mps 688 mmHg 26%
    18:00 +30°C° 0.1 mm 3 mps 688 mmHg 27%
    19:00 +29°C° 0.1 mm 2 mps 689 mmHg 30%
    20:00 +28°C° 0.1 mm 2 mps 689 mmHg 33%
    21:00 +27°C° 0.1 mm 1 mps 690 mmHg 36%
    22:00 +26°C° 0.2 mm 1 mps 690 mmHg 38%
    23:00 +25°C° 0.2 mm 1 mps 690 mmHg 40%

    25 May, Saturday

    Time Temperature Precipitation Wind Pressure Humidity
    00:00 +25°C° 0.2 mm 1 mps 690 mmHg 42%
    01:00 +24°C° 0.4 mm 1 mps 690 mmHg 43%
    02:00 +24°C° 0.4 mm 1 mps 689 mmHg 45%
    03:00 +23°C° 0.4 mm 1 mps 689 mmHg 46%
    04:00 +24°C° 0 mm 1 mps 689 mmHg 44%
    05:00 +24°C° 0 mm 1 mps 690 mmHg 43%
    06:00 +24°C° 0 mm 1 mps 690 mmHg 41%
    07:00 +26°C° 0 mm 1 mps 690 mmHg 37%
    08:00 +27°C° 0 mm 1 mps 690 mmHg 33%
    09:00 +29°C° 0 mm 2 mps 690 mmHg 29%
    10:00 +30°C° 0 mm 2 mps 690 mmHg 26%
    11:00 +32°C° 0 mm 2 mps 690 mmHg 24%
    12:00 +34°C° 0 mm 2 mps 690 mmHg 21%
    13:00 +35°C° 0 mm 2 mps 689 mmHg 18%
    14:00 +36°C° 0 mm 2 mps 689 mmHg 16%
    15:00 +36°C° 0 mm 3 mps 689 mmHg 14%
    16:00 +36°C° 0 mm 3 mps 689 mmHg 15%
    17:00 +35°C° 0 mm 3 mps 688 mmHg 16%
    18:00 +35°C° 0 mm 3 mps 688 mmHg 18%
    19:00 +33°C° 0.1 mm 3 mps 688 mmHg 21%
    20:00 +31°C° 0.1 mm 2 mps 688 mmHg 25%
    21:00 +29°C° 0.1 mm 2 mps 688 mmHg 28%
    22:00 +28°C° 0 mm 2 mps 688 mmHg 30%
    23:00 +28°C° 0 mm 2 mps 687 mmHg 31%

    26 May, Sunday

    Time Temperature Precipitation Wind Pressure Humidity
    00:00 +27°C° 0 mm 2 mps 687 mmHg 33%
    01:00 +26°C° 0 mm 2 mps 687 mmHg 34%
    02:00 +26°C° 0 mm 2 mps 686 mmHg 35%
    03:00 +25°C° 0 mm 2 mps 686 mmHg 36%
    04:00 +26°C° 0 mm 2 mps 686 mmHg 35%
    05:00 +26°C° 0 mm 2 mps 686 mmHg 35%
    06:00 +26°C° 0 mm 1 mps 686 mmHg 34%
    07:00 +28°C° 0 mm 2 mps 687 mmHg 29%
    08:00 +30°C° 0 mm 3 mps 687 mmHg 25%
    09:00 +33°C° 0 mm 3 mps 687 mmHg 20%
    10:00 +34°C° 0 mm 4 mps 686 mmHg 18%
    11:00 +36°C° 0 mm 4 mps 686 mmHg 16%
    12:00 +37°C° 0 mm 5 mps 686 mmHg 14%
    13:00 +37°C° 0.1 mm 5 mps 686 mmHg 13%
    14:00 +37°C° 0.1 mm 5 mps 686 mmHg 13%
    15:00 +37°C° 0.1 mm 5 mps 686 mmHg 12%
    16:00 +37°C° 0 mm 5 mps 686 mmHg 12%
    17:00 +36°C° 0 mm 6 mps 686 mmHg 12%
    18:00 +36°C° 0 mm 6 mps 686 mmHg 12%
    19:00 +33°C° 0 mm 5 mps 686 mmHg 13%
    20:00 +30°C° 0 mm 3 mps 686 mmHg 15%
    21:00 +28°C° 0 mm 2 mps 687 mmHg 17%
    22:00 +27°C° 0 mm 2 mps 687 mmHg 18%
    23:00 +26°C° 0 mm 2 mps 687 mmHg 19%
    Show more